Time,TemperatureF,DewpointF,PressureIn,WindDirection,WindDirectionDegrees,WindSpeedMPH,WindSpeedGustMPH,Humidity,HourlyPrecipIn,Conditions,Clouds,dailyrainin,SoftwareType,DateUTC
2013-07-27 00:01:00,71.1,59.5,30.12,NE,49,0.0,0.0,73,0.00,,,0.04,meteohub,2013-07-27 04:01:00,
2013-07-27 00:06:00,71.1,59.9,30.12,NE,49,0.0,0.0,74,0.00,,,0.04,meteohub,2013-07-27 04:06:00,
2013-07-27 00:11:00,71.1,60.4,30.12,NE,49,0.0,0.0,75,0.00,,,0.04,meteohub,2013-07-27 04:11:00,
2013-07-27 00:17:00,70.9,60.3,30.12,NE,49,0.0,0.0,75,0.00,,,0.04,meteohub,2013-07-27 04:17:00,
2013-07-27 00:22:00,70.9,60.3,30.12,NE,49,0.0,0.0,75,0.00,,,0.04,meteohub,2013-07-27 04:22:00,
2013-07-27 00:27:00,70.9,60.3,30.12,NE,49,0.0,0.0,75,0.00,,,0.04,meteohub,2013-07-27 04:27:00,
2013-07-27 00:32:00,70.9,60.6,30.12,NE,49,0.0,0.0,76,0.00,,,0.04,meteohub,2013-07-27 04:32:00,
2013-07-27 00:37:00,70.7,60.4,30.12,NE,49,0.0,0.0,76,0.00,,,0.04,meteohub,2013-07-27 04:37:00,
2013-07-27 00:42:00,70.7,60.4,30.09,NE,49,0.0,0.0,76,0.00,,,0.04,meteohub,2013-07-27 04:42:00,
2013-07-27 00:47:00,70.5,60.3,30.09,NE,49,0.0,0.0,76,0.00,,,0.04,meteohub,2013-07-27 04:47:00,
2013-07-27 00:52:00,70.3,60.4,30.09,NE,49,0.0,0.0,77,0.00,,,0.04,meteohub,2013-07-27 04:52:00,
2013-07-27 00:57:00,70.3,60.4,30.09,NE,49,0.0,0.0,77,0.00,,,0.04,meteohub,2013-07-27 04:57:00,
2013-07-27 01:02:00,70.2,60.3,30.09,NE,49,0.0,0.0,77,0.00,,,0.00,meteohub,2013-07-27 05:02:00,
2013-07-27 01:07:00,70.2,60.3,30.09,NE,49,0.0,0.0,77,0.00,,,0.00,meteohub,2013-07-27 05:07:00,
2013-07-27 01:12:00,70.0,60.1,30.09,NE,49,0.0,0.0,77,0.00,,,0.00,meteohub,2013-07-27 05:12:00,
2013-07-27 01:17:00,69.8,60.4,30.09,NE,49,0.0,0.0,78,0.00,,,0.00,meteohub,2013-07-27 05:17:00,
2013-07-27 01:22:00,69.8,60.4,30.09,NE,49,0.0,0.0,78,0.00,,,0.00,meteohub,2013-07-27 05:22:00,
2013-07-27 01:27:00,69.6,60.6,30.09,NE,49,0.0,0.0,79,0.00,,,0.00,meteohub,2013-07-27 05:27:00,
2013-07-27 01:32:00,69.6,60.6,30.09,NE,49,0.0,0.0,79,0.00,,,0.00,meteohub,2013-07-27 05:32:00,
2013-07-27 01:37:00,69.4,60.4,30.09,NE,49,0.0,0.0,79,0.00,,,0.00,meteohub,2013-07-27 05:37:00,
2013-07-27 01:43:00,69.4,60.8,30.09,NE,49,0.0,0.0,80,0.00,,,0.00,meteohub,2013-07-27 05:43:00,
2013-07-27 01:48:00,69.4,60.8,30.09,NE,49,0.0,0.0,80,0.00,,,0.00,meteohub,2013-07-27 05:48:00,
2013-07-27 01:53:00,69.4,61.2,30.09,NE,49,0.0,0.0,81,0.00,,,0.00,meteohub,2013-07-27 05:53:00,
2013-07-27 01:58:00,69.4,61.2,30.09,NE,49,0.0,0.0,81,0.00,,,0.00,meteohub,2013-07-27 05:58:00,
2013-07-27 02:03:00,69.4,61.2,30.09,NE,49,0.0,0.0,81,0.00,,,0.00,meteohub,2013-07-27 06:03:00,
2013-07-27 02:08:00,69.3,61.3,30.09,NE,49,0.0,0.0,82,0.00,,,0.00,meteohub,2013-07-27 06:08:00,
2013-07-27 02:13:00,69.4,61.5,30.09,NE,49,0.0,0.0,82,0.00,,,0.00,meteohub,2013-07-27 06:13:00,
2013-07-27 02:18:00,69.4,61.5,30.09,NE,49,0.0,0.0,82,0.00,,,0.00,meteohub,2013-07-27 06:18:00,
2013-07-27 02:23:00,69.4,61.5,30.09,NE,49,0.0,0.0,82,0.00,,,0.00,meteohub,2013-07-27 06:23:00,
2013-07-27 02:28:00,69.4,61.5,30.06,NE,49,0.0,0.0,82,0.00,,,0.00,meteohub,2013-07-27 06:28:00,
2013-07-27 02:33:00,69.4,61.9,30.06,NE,49,0.0,0.0,83,0.00,,,0.00,meteohub,2013-07-27 06:33:00,
2013-07-27 02:38:00,69.4,61.9,30.06,NE,49,0.0,0.0,83,0.00,,,0.00,meteohub,2013-07-27 06:38:00,
2013-07-27 02:43:00,69.4,61.9,30.06,NE,49,0.0,0.0,83,0.00,,,0.00,meteohub,2013-07-27 06:43:00,
2013-07-27 02:48:00,69.4,62.2,30.06,NE,49,0.0,0.0,84,0.00,,,0.00,meteohub,2013-07-27 06:48:00,
2013-07-27 02:53:00,69.4,62.2,30.06,NE,49,0.0,0.0,84,0.00,,,0.00,meteohub,2013-07-27 06:53:00,
2013-07-27 02:58:00,69.4,62.2,30.06,NE,49,0.0,0.0,84,0.00,,,0.00,meteohub,2013-07-27 06:58:00,
2013-07-27 03:03:00,69.4,62.2,30.06,NE,49,0.0,0.0,84,0.00,,,0.00,meteohub,2013-07-27 07:03:00,
2013-07-27 03:08:00,69.4,62.6,30.06,NE,49,0.0,0.0,85,0.00,,,0.00,meteohub,2013-07-27 07:08:00,
2013-07-27 03:13:00,69.6,62.8,30.06,NE,49,0.0,0.0,85,0.00,,,0.00,meteohub,2013-07-27 07:13:00,
2013-07-27 03:18:00,69.6,62.8,30.06,NE,49,0.0,0.0,85,0.00,,,0.00,meteohub,2013-07-27 07:18:00,
2013-07-27 03:23:00,69.4,62.6,30.06,NE,49,0.0,0.0,85,0.00,,,0.00,meteohub,2013-07-27 07:23:00,
2013-07-27 03:28:00,69.6,62.8,30.06,NE,49,0.0,0.0,85,0.00,,,0.00,meteohub,2013-07-27 07:28:00,
2013-07-27 03:33:00,69.6,63.1,30.06,NE,49,0.0,0.0,86,0.00,,,0.00,meteohub,2013-07-27 07:33:00,
2013-07-27 03:38:00,69.6,63.1,30.06,NE,49,0.0,0.0,86,0.00,,,0.00,meteohub,2013-07-27 07:38:00,
2013-07-27 03:43:00,69.6,63.1,30.06,NE,49,0.0,0.0,86,0.00,,,0.00,meteohub,2013-07-27 07:43:00,
2013-07-27 03:48:00,69.6,63.1,30.06,NE,49,0.0,0.0,86,0.00,,,0.00,meteohub,2013-07-27 07:48:00,
2013-07-27 03:53:00,69.6,63.1,30.06,NE,49,0.0,0.0,86,0.00,,,0.00,meteohub,2013-07-27 07:53:00,
2013-07-27 03:58:00,69.8,63.3,30.06,NE,49,0.0,0.0,86,0.00,,,0.00,meteohub,2013-07-27 07:58:00,
2013-07-27 04:03:00,69.8,63.3,30.06,NE,49,0.0,0.0,86,0.00,,,0.00,meteohub,2013-07-27 08:03:00,
2013-07-27 04:08:00,69.8,63.7,30.06,NE,49,0.0,0.0,87,0.00,,,0.00,meteohub,2013-07-27 08:08:00,
2013-07-27 04:13:00,69.8,63.7,30.06,NE,49,0.0,0.0,87,0.00,,,0.00,meteohub,2013-07-27 08:13:00,
2013-07-27 04:18:00,69.8,63.7,30.06,NE,49,0.0,0.0,87,0.00,,,0.00,meteohub,2013-07-27 08:18:00,
2013-07-27 04:23:00,69.8,63.7,30.06,NE,49,0.0,0.0,87,0.00,,,0.00,meteohub,2013-07-27 08:23:00,
2013-07-27 04:28:00,69.8,63.7,30.03,NE,49,0.0,0.0,87,0.00,,,0.00,meteohub,2013-07-27 08:28:00,
2013-07-27 04:33:00,69.8,63.7,30.03,NE,49,0.0,0.0,87,0.00,,,0.00,meteohub,2013-07-27 08:33:00,
2013-07-27 04:38:00,69.8,63.7,30.03,NE,49,0.0,0.0,87,0.00,,,0.00,meteohub,2013-07-27 08:38:00,
2013-07-27 04:43:00,69.8,63.7,30.06,NE,49,0.0,0.0,87,0.00,,,0.00,meteohub,2013-07-27 08:43:00,
2013-07-27 04:48:00,69.8,64.0,30.06,NE,49,0.0,0.0,88,0.00,,,0.00,meteohub,2013-07-27 08:48:00,
2013-07-27 04:54:00,69.8,64.0,30.06,NE,49,0.0,0.0,88,0.00,,,0.00,meteohub,2013-07-27 08:54:00,
2013-07-27 04:58:00,69.8,64.0,30.06,NE,49,0.0,0.0,88,0.00,,,0.00,meteohub,2013-07-27 08:58:00,
2013-07-27 05:04:00,69.8,64.0,30.06,NE,49,0.0,0.0,88,0.00,,,0.00,meteohub,2013-07-27 09:04:00,
2013-07-27 05:09:00,69.6,63.9,30.06,NE,49,0.0,0.0,88,0.00,,,0.00,meteohub,2013-07-27 09:09:00,
2013-07-27 05:14:00,69.6,63.9,30.06,NE,49,0.0,0.0,88,0.00,,,0.00,meteohub,2013-07-27 09:14:00,
2013-07-27 05:19:00,69.6,64.2,30.06,NE,49,0.0,0.0,89,0.00,,,0.00,meteohub,2013-07-27 09:19:00,
2013-07-27 05:24:00,69.6,64.2,30.06,NE,49,0.0,0.0,89,0.00,,,0.00,meteohub,2013-07-27 09:24:00,
2013-07-27 05:29:00,69.4,64.0,30.06,NE,49,0.0,0.0,89,0.00,,,0.00,meteohub,2013-07-27 09:29:00,
2013-07-27 05:34:00,69.4,64.0,30.06,NE,49,0.0,0.0,89,0.00,,,0.00,meteohub,2013-07-27 09:34:00,
2013-07-27 05:39:00,69.3,63.9,30.06,NE,49,0.0,0.0,89,0.00,,,0.00,meteohub,2013-07-27 09:39:00,
2013-07-27 05:44:00,69.3,63.9,30.06,NE,49,0.0,0.0,89,0.00,,,0.00,meteohub,2013-07-27 09:44:00,
2013-07-27 05:49:00,69.1,63.7,30.06,NE,49,0.0,0.0,89,0.00,,,0.00,meteohub,2013-07-27 09:49:00,
2013-07-27 05:54:00,68.9,63.9,30.06,NE,49,0.0,0.0,90,0.00,,,0.00,meteohub,2013-07-27 09:54:00,
2013-07-27 05:59:00,68.9,63.9,30.06,NE,49,0.0,0.0,90,0.00,,,0.00,meteohub,2013-07-27 09:59:00,
2013-07-27 06:04:00,68.9,64.2,30.06,NE,49,0.0,0.0,91,0.00,,,0.00,meteohub,2013-07-27 10:04:00,
2013-07-27 06:09:00,68.9,64.2,30.06,NE,49,0.0,0.0,91,0.00,,,0.00,meteohub,2013-07-27 10:09:00,
2013-07-27 06:14:00,68.7,64.0,30.03,NE,49,0.0,0.0,91,0.00,,,0.00,meteohub,2013-07-27 10:14:00,
2013-07-27 06:19:00,68.7,64.0,30.03,NE,49,0.0,0.0,91,0.00,,,0.00,meteohub,2013-07-27 10:19:00,
2013-07-27 06:24:00,68.9,64.6,30.03,NE,49,0.0,0.0,92,0.00,,,0.00,meteohub,2013-07-27 10:24:00,
2013-07-27 06:29:00,68.9,64.6,30.06,NE,49,0.0,0.0,92,0.00,,,0.00,meteohub,2013-07-27 10:29:00,
2013-07-27 06:34:00,68.7,64.0,30.06,NE,49,0.0,0.0,91,0.00,,,0.00,meteohub,2013-07-27 10:34:00,
2013-07-27 06:39:00,68.7,64.4,30.06,NE,49,0.0,0.0,92,0.00,,,0.00,meteohub,2013-07-27 10:39:00,
2013-07-27 06:44:00,68.9,64.6,30.06,NE,49,0.0,0.0,92,0.00,,,0.00,meteohub,2013-07-27 10:44:00,
2013-07-27 06:49:00,69.1,65.1,30.06,NE,49,0.0,0.0,93,0.00,,,0.00,meteohub,2013-07-27 10:49:00,
2013-07-27 06:54:00,69.1,65.1,30.06,NE,49,0.0,0.0,93,0.00,,,0.00,meteohub,2013-07-27 10:54:00,
2013-07-27 06:59:00,69.1,65.1,30.06,NE,49,0.0,0.0,93,0.00,,,0.00,meteohub,2013-07-27 10:59:00,
2013-07-27 07:04:00,69.3,65.3,30.06,NE,49,0.0,0.0,93,0.00,,,0.00,meteohub,2013-07-27 11:04:00,
2013-07-27 07:09:00,69.3,65.3,30.06,NE,49,0.0,0.0,93,0.00,,,0.00,meteohub,2013-07-27 11:09:00,
2013-07-27 07:14:00,69.3,65.3,30.06,NE,49,0.0,0.0,93,0.00,,,0.00,meteohub,2013-07-27 11:14:00,
2013-07-27 07:19:00,69.3,65.3,30.06,NE,49,0.0,0.0,93,0.00,,,0.00,meteohub,2013-07-27 11:19:00,
2013-07-27 07:24:00,69.4,65.7,30.06,NE,49,0.0,0.0,94,0.00,,,0.00,meteohub,2013-07-27 11:24:00,
2013-07-27 07:29:00,69.6,65.8,30.06,NE,49,0.0,0.0,94,0.00,,,0.00,meteohub,2013-07-27 11:29:00,
2013-07-27 07:34:00,69.8,66.0,30.06,NE,49,0.0,0.0,94,0.00,,,0.00,meteohub,2013-07-27 11:34:00,
2013-07-27 07:40:00,70.0,66.6,30.06,NE,49,0.0,0.0,95,0.00,,,0.00,meteohub,2013-07-27 11:40:00,
2013-07-27 07:45:00,70.2,66.4,30.06,NE,49,0.0,0.0,94,0.00,,,0.00,meteohub,2013-07-27 11:45:00,
2013-07-27 07:50:00,70.3,66.6,30.06,NE,49,0.0,0.0,94,0.00,,,0.00,meteohub,2013-07-27 11:50:00,
2013-07-27 07:55:00,70.5,67.1,30.06,NE,49,0.0,0.0,95,0.00,,,0.00,meteohub,2013-07-27 11:55:00,
2013-07-27 07:59:00,70.7,66.9,30.06,NE,49,0.0,0.0,94,0.00,,,0.00,meteohub,2013-07-27 11:59:00,
2013-07-27 08:05:00,70.9,67.1,30.06,SW,215,0.0,0.0,94,0.00,,,0.00,meteohub,2013-07-27 12:05:00,
2013-07-27 08:10:00,70.9,67.1,30.06,North,6,0.0,0.0,94,0.00,,,0.00,meteohub,2013-07-27 12:10:00,
2013-07-27 08:15:00,70.9,67.1,30.06,WSW,248,0.0,0.0,94,0.00,,,0.00,meteohub,2013-07-27 12:15:00,
2013-07-27 08:20:00,71.1,67.6,30.06,WSW,248,0.0,0.0,95,0.00,,,0.00,meteohub,2013-07-27 12:20:00,
2013-07-27 08:25:00,71.1,67.6,30.06,WSW,248,0.0,0.0,95,0.00,,,0.00,meteohub,2013-07-27 12:25:00,
2013-07-27 08:30:00,71.4,68.0,30.06,WSW,249,0.0,0.0,95,0.00,,,0.00,meteohub,2013-07-27 12:30:00,
2013-07-27 08:35:00,71.6,68.2,30.06,WSW,248,0.0,0.0,95,0.00,,,0.00,meteohub,2013-07-27 12:35:00,
2013-07-27 08:40:00,71.8,68.4,30.06,WSW,248,0.0,0.0,95,0.00,,,0.00,meteohub,2013-07-27 12:40:00,
2013-07-27 08:45:00,72.0,68.5,30.09,SSW,206,3.0,0.0,95,0.00,,,0.00,meteohub,2013-07-27 12:45:00,
2013-07-27 08:50:00,72.1,68.7,30.09,South,176,0.0,0.0,95,0.00,,,0.00,meteohub,2013-07-27 12:50:00,
2013-07-27 08:55:00,72.3,68.9,30.09,SSW,195,0.0,0.0,95,0.00,,,0.00,meteohub,2013-07-27 12:55:00,
2013-07-27 09:00:00,72.5,68.7,30.09,SSW,201,0.0,0.0,94,0.00,,,0.00,meteohub,2013-07-27 13:00:00,
2013-07-27 09:05:00,72.5,68.7,30.09,SE,143,0.0,0.0,94,0.00,,,0.00,meteohub,2013-07-27 13:05:00,
2013-07-27 09:10:00,72.7,68.5,30.09,WSW,251,3.0,0.0,93,0.00,,,0.00,meteohub,2013-07-27 13:10:00,
2013-07-27 09:15:00,72.7,68.2,30.09,WNW,287,0.0,0.0,92,0.00,,,0.00,meteohub,2013-07-27 13:15:00,
2013-07-27 09:20:00,72.7,67.8,30.09,WSW,257,2.0,0.0,91,0.00,,,0.00,meteohub,2013-07-27 13:20:00,
2013-07-27 09:25:00,72.9,68.0,30.09,SSW,201,0.0,0.0,91,0.00,,,0.00,meteohub,2013-07-27 13:25:00,
2013-07-27 09:30:00,73.0,68.2,30.09,West,267,7.0,0.0,91,0.00,,,0.00,meteohub,2013-07-27 13:30:00,
2013-07-27 09:35:00,73.2,67.8,30.09,West,267,3.0,0.0,89,0.00,,,0.00,meteohub,2013-07-27 13:35:00,
2013-07-27 09:40:00,73.4,67.3,30.09,WSW,241,0.0,0.0,87,0.00,,,0.00,meteohub,2013-07-27 13:40:00,
2013-07-27 09:45:00,73.4,66.6,30.09,SSW,210,4.0,0.0,85,0.00,,,0.00,meteohub,2013-07-27 13:45:00,
2013-07-27 09:50:00,73.6,65.8,30.09,SSW,197,3.0,7.0,83,0.00,,,0.00,meteohub,2013-07-27 13:50:00,
2013-07-27 09:55:00,73.9,64.4,30.09,WSW,248,3.0,7.0,78,0.00,,,0.00,meteohub,2013-07-27 13:55:00,
2013-07-27 10:00:00,74.3,63.5,30.09,SW,217,0.0,7.0,75,0.00,,,0.00,meteohub,2013-07-27 14:00:00,
2013-07-27 10:05:00,74.7,58.5,30.09,SSE,154,2.0,7.0,63,0.00,,,0.00,meteohub,2013-07-27 14:05:00,
2013-07-27 10:10:00,74.8,59.0,30.09,SSW,201,5.0,7.0,64,0.00,,,0.00,meteohub,2013-07-27 14:10:00,
2013-07-27 10:15:00,74.8,58.1,30.09,SSW,203,0.0,7.0,62,0.00,,,0.00,meteohub,2013-07-27 14:15:00,
2013-07-27 10:20:00,74.8,57.6,30.09,ENE,71,0.0,7.0,61,0.00,,,0.00,meteohub,2013-07-27 14:20:00,
2013-07-27 10:25:00,75.0,57.2,30.09,SSE,155,0.0,7.0,60,0.00,,,0.00,meteohub,2013-07-27 14:25:00,
2013-07-27 10:30:00,75.0,56.7,30.09,SSE,155,0.0,7.0,59,0.00,,,0.00,meteohub,2013-07-27 14:30:00,
2013-07-27 10:35:00,75.0,56.1,30.09,SSE,155,0.0,7.0,58,0.00,,,0.00,meteohub,2013-07-27 14:35:00,
2013-07-27 10:40:00,75.0,56.1,30.09,ENE,71,0.0,7.0,58,0.00,,,0.00,meteohub,2013-07-27 14:40:00,
2013-07-27 10:45:00,75.0,55.0,30.09,SW,217,0.0,0.0,56,0.00,,,0.00,meteohub,2013-07-27 14:45:00,
2013-07-27 10:50:00,75.0,55.0,30.09,North,3,0.0,0.0,56,0.00,,,0.00,meteohub,2013-07-27 14:50:00,
2013-07-27 10:55:00,75.0,54.5,30.09,West,269,0.0,0.0,55,0.00,,,0.00,meteohub,2013-07-27 14:55:00,
2013-07-27 11:00:00,75.4,54.3,30.09,West,269,0.0,0.0,54,0.00,,,0.00,meteohub,2013-07-27 15:00:00,
2013-07-27 11:05:00,75.4,54.3,30.09,SSW,204,0.0,0.0,54,0.00,,,0.00,meteohub,2013-07-27 15:05:00,
2013-07-27 11:10:00,75.7,54.7,30.09,West,262,0.0,0.0,54,0.00,,,0.00,meteohub,2013-07-27 15:10:00,
2013-07-27 11:15:00,75.9,54.3,30.09,WSW,256,0.0,0.0,53,0.00,,,0.00,meteohub,2013-07-27 15:15:00,
2013-07-27 11:20:00,76.3,53.4,30.09,SE,136,0.0,0.0,51,0.00,,,0.00,meteohub,2013-07-27 15:20:00,
2013-07-27 11:26:00,76.6,53.1,30.09,WSW,253,3.0,0.0,50,0.00,,,0.00,meteohub,2013-07-27 15:26:00,
2013-07-27 11:31:00,77.0,51.4,30.09,South,172,0.0,0.0,47,0.00,,,0.00,meteohub,2013-07-27 15:31:00,
2013-07-27 11:36:00,77.2,51.1,30.09,SW,223,3.0,0.0,46,0.00,,,0.00,meteohub,2013-07-27 15:36:00,
2013-07-27 11:41:00,77.2,50.4,30.09,SSW,208,2.0,6.0,45,0.00,,,0.00,meteohub,2013-07-27 15:41:00,
2013-07-27 11:46:00,77.2,49.6,30.09,West,275,0.0,6.0,44,0.00,,,0.00,meteohub,2013-07-27 15:46:00,
2013-07-27 11:51:00,77.2,48.2,30.09,WNW,298,4.0,6.0,42,0.00,,,0.00,meteohub,2013-07-27 15:51:00,
2013-07-27 11:56:00,77.2,47.5,30.09,SSE,161,3.0,6.0,41,0.00,,,0.00,meteohub,2013-07-27 15:56:00,
2013-07-27 12:01:00,77.2,47.5,30.09,SW,230,2.0,6.0,41,0.00,,,0.00,meteohub,2013-07-27 16:01:00,
2013-07-27 12:06:00,77.2,47.5,30.09,WSW,249,2.0,6.0,41,0.00,,,0.00,meteohub,2013-07-27 16:06:00,
2013-07-27 12:11:00,77.2,47.5,30.09,WNW,283,3.0,6.0,41,0.00,,,0.00,meteohub,2013-07-27 16:11:00,
2013-07-27 12:16:00,77.2,47.5,30.09,SSW,210,3.0,6.0,41,0.00,,,0.00,meteohub,2013-07-27 16:16:00,
2013-07-27 12:21:00,77.2,47.5,30.09,WSW,257,3.0,6.0,41,0.00,,,0.00,meteohub,2013-07-27 16:21:00,
2013-07-27 12:26:00,77.2,47.5,30.09,WSW,256,3.0,6.0,41,0.00,,,0.00,meteohub,2013-07-27 16:26:00,
2013-07-27 12:31:00,77.4,47.5,30.09,West,259,8.0,8.0,41,0.00,,,0.00,meteohub,2013-07-27 16:31:00,
2013-07-27 12:37:00,77.7,47.8,30.09,SW,222,0.0,6.0,41,0.00,,,0.00,meteohub,2013-07-27 16:37:00,
2013-07-27 12:42:00,78.3,46.8,30.06,WSW,251,3.0,8.0,39,0.00,,,0.00,meteohub,2013-07-27 16:42:00,
2013-07-27 12:47:00,78.8,47.3,30.06,SSW,194,6.0,8.0,39,0.00,,,0.00,meteohub,2013-07-27 16:47:00,
2013-07-27 12:52:00,79.3,46.9,30.06,NW,309,0.0,8.0,38,0.00,,,0.00,meteohub,2013-07-27 16:52:00,
2013-07-27 12:57:00,79.7,47.3,30.06,SW,230,3.0,8.0,38,0.00,,,0.00,meteohub,2013-07-27 16:57:00,
2013-07-27 13:02:00,79.5,46.2,30.06,West,261,4.0,8.0,37,0.00,,,0.00,meteohub,2013-07-27 17:02:00,
2013-07-27 13:07:00,79.3,46.0,30.06,WSW,247,0.0,8.0,37,0.00,,,0.00,meteohub,2013-07-27 17:07:00,
2013-07-27 13:12:00,79.3,46.0,30.06,WSW,252,4.0,8.0,37,0.00,,,0.00,meteohub,2013-07-27 17:12:00,
2013-07-27 13:17:00,79.2,45.9,30.06,South,171,4.0,8.0,37,0.00,,,0.00,meteohub,2013-07-27 17:17:00,
2013-07-27 13:22:00,78.8,46.4,30.06,WSW,250,5.0,8.0,38,0.00,,,0.00,meteohub,2013-07-27 17:22:00,
2013-07-27 13:27:00,79.0,46.6,30.06,West,259,3.0,8.0,38,0.00,,,0.00,meteohub,2013-07-27 17:27:00,
2013-07-27 13:32:00,79.2,46.8,30.06,SW,234,4.0,8.0,38,0.00,,,0.00,meteohub,2013-07-27 17:32:00,
2013-07-27 13:37:00,79.3,46.9,30.06,South,186,2.0,8.0,38,0.00,,,0.00,meteohub,2013-07-27 17:37:00,
2013-07-27 13:42:00,79.5,46.2,30.06,West,263,4.0,8.0,37,0.00,,,0.00,meteohub,2013-07-27 17:42:00,
2013-07-27 13:47:00,79.7,46.4,30.06,WSW,257,3.0,8.0,37,0.00,,,0.00,meteohub,2013-07-27 17:47:00,
2013-07-27 13:52:00,79.7,46.4,30.06,West,270,3.0,6.0,37,0.00,,,0.00,meteohub,2013-07-27 17:52:00,
2013-07-27 13:57:00,79.5,46.2,30.06,WSW,247,3.0,6.0,37,0.00,,,0.00,meteohub,2013-07-27 17:57:00,
2013-07-27 14:02:00,79.3,46.0,30.06,SSW,197,3.0,6.0,37,0.00,,,0.00,meteohub,2013-07-27 18:02:00,
2013-07-27 14:08:00,79.2,45.9,30.06,WNW,286,4.0,6.0,37,0.00,,,0.00,meteohub,2013-07-27 18:08:00,
2013-07-27 14:13:00,79.0,45.7,30.06,West,274,6.0,6.0,37,0.00,,,0.00,meteohub,2013-07-27 18:13:00,
2013-07-27 14:18:00,78.8,45.7,30.06,WSW,244,4.0,6.0,37,0.00,,,0.00,meteohub,2013-07-27 18:18:00,
2013-07-27 14:23:00,78.6,46.2,30.06,SW,232,3.0,6.0,38,0.00,,,0.00,meteohub,2013-07-27 18:23:00,
2013-07-27 14:28:00,78.6,46.2,30.06,West,277,0.0,6.0,38,0.00,,,0.00,meteohub,2013-07-27 18:28:00,
2013-07-27 14:33:00,78.6,46.2,30.06,SW,235,3.0,6.0,38,0.00,,,0.00,meteohub,2013-07-27 18:33:00,
2013-07-27 14:38:00,78.4,46.2,30.06,WSW,241,5.0,6.0,38,0.00,,,0.00,meteohub,2013-07-27 18:38:00,
2013-07-27 14:43:00,78.3,46.0,30.06,North,5,0.0,6.0,38,0.00,,,0.00,meteohub,2013-07-27 18:43:00,
2013-07-27 14:48:00,78.1,45.9,30.06,SW,230,0.0,6.0,38,0.00,,,0.00,meteohub,2013-07-27 18:48:00,
2013-07-27 14:53:00,78.3,46.0,30.06,SSW,207,4.0,6.0,38,0.00,,,0.00,meteohub,2013-07-27 18:53:00,
2013-07-27 14:58:00,78.4,46.9,30.06,WSW,250,3.0,6.0,39,0.00,,,0.00,meteohub,2013-07-27 18:58:00,
2013-07-27 15:03:00,78.4,46.9,30.06,West,273,0.0,8.0,39,0.00,,,0.00,meteohub,2013-07-27 19:03:00,
2013-07-27 15:08:00,78.3,46.0,30.06,SW,214,0.0,8.0,38,0.00,,,0.00,meteohub,2013-07-27 19:08:00,
2013-07-27 15:13:00,78.3,46.0,30.06,NE,50,0.0,8.0,38,0.00,,,0.00,meteohub,2013-07-27 19:13:00,
2013-07-27 15:18:00,78.3,46.0,30.06,WNW,292,3.0,8.0,38,0.00,,,0.00,meteohub,2013-07-27 19:18:00,
2013-07-27 15:23:00,78.8,46.4,30.06,West,262,3.0,8.0,38,0.00,,,0.00,meteohub,2013-07-27 19:23:00,
2013-07-27 15:28:00,79.3,46.9,30.06,SSE,166,0.0,8.0,38,0.00,,,0.00,meteohub,2013-07-27 19:28:00,
2013-07-27 15:33:00,79.9,46.6,30.06,SW,216,4.0,8.0,37,0.00,,,0.00,meteohub,2013-07-27 19:33:00,
2013-07-27 15:38:00,80.1,46.8,30.06,WNW,302,3.0,8.0,37,0.00,,,0.00,meteohub,2013-07-27 19:38:00,
2013-07-27 15:43:00,80.4,46.9,30.03,WSW,241,4.0,8.0,37,0.00,,,0.00,meteohub,2013-07-27 19:43:00,
2013-07-27 15:48:00,80.4,46.9,30.03,NNW,330,0.0,8.0,37,0.00,,,0.00,meteohub,2013-07-27 19:48:00,
2013-07-27 15:53:00,80.4,46.9,30.03,WSW,257,4.0,8.0,37,0.00,,,0.00,meteohub,2013-07-27 19:53:00,
2013-07-27 15:56:00,80.6,46.2,30.03,SW,229,3.0,8.0,36,0.00,,,0.00,meteohub,2013-07-27 19:56:00,
2013-07-27 16:02:00,80.6,46.2,30.03,West,271,8.0,8.0,36,0.00,,,0.00,meteohub,2013-07-27 20:02:00,
2013-07-27 16:07:00,80.4,46.2,30.03,West,262,4.0,8.0,36,0.00,,,0.00,meteohub,2013-07-27 20:07:00,
2013-07-27 16:12:00,80.4,46.9,30.03,NE,51,3.0,8.0,37,0.00,,,0.00,meteohub,2013-07-27 20:12:00,
2013-07-27 16:17:00,80.6,46.2,30.03,East,90,0.0,8.0,36,0.00,,,0.00,meteohub,2013-07-27 20:17:00,
2013-07-27 16:22:00,80.6,46.2,30.03,WNW,283,3.0,8.0,36,0.00,,,0.00,meteohub,2013-07-27 20:22:00,
2013-07-27 16:27:00,80.6,46.2,30.03,West,281,5.0,8.0,36,0.00,,,0.00,meteohub,2013-07-27 20:27:00,
2013-07-27 16:32:00,80.2,46.9,30.03,WSW,250,3.0,8.0,37,0.00,,,0.00,meteohub,2013-07-27 20:32:00,
2013-07-27 16:37:00,80.2,46.9,30.03,SW,235,0.0,8.0,37,0.00,,,0.00,meteohub,2013-07-27 20:37:00,
2013-07-27 16:42:00,79.9,46.6,30.00,NW,310,4.0,8.0,37,0.00,,,0.00,meteohub,2013-07-27 20:42:00,
2013-07-27 16:47:00,79.5,46.2,30.00,SW,234,5.0,8.0,37,0.00,,,0.00,meteohub,2013-07-27 20:47:00,
2013-07-27 16:52:00,79.3,46.0,30.00,WSW,240,4.0,8.0,37,0.00,,,0.00,meteohub,2013-07-27 20:52:00,
2013-07-27 16:57:00,79.0,45.7,30.03,West,278,2.0,6.0,37,0.00,,,0.00,meteohub,2013-07-27 20:57:00,
2013-07-27 17:02:00,78.8,45.7,30.03,West,261,3.0,6.0,37,0.00,,,0.00,meteohub,2013-07-27 21:02:00,
2013-07-27 17:07:00,78.4,45.3,30.03,SSW,212,2.0,6.0,37,0.00,,,0.00,meteohub,2013-07-27 21:07:00,
2013-07-27 17:12:00,78.3,45.1,30.03,WSW,257,0.0,6.0,37,0.00,,,0.00,meteohub,2013-07-27 21:12:00,
2013-07-27 17:17:00,78.1,45.9,30.03,WSW,240,4.0,6.0,38,0.00,,,0.00,meteohub,2013-07-27 21:17:00,
2013-07-27 17:22:00,77.9,45.7,30.03,West,261,0.0,6.0,38,0.00,,,0.00,meteohub,2013-07-27 21:22:00,
2013-07-27 17:28:00,77.7,45.5,30.03,West,271,0.0,6.0,38,0.00,,,0.00,meteohub,2013-07-27 21:28:00,
2013-07-27 17:33:00,77.7,45.5,30.03,West,265,0.0,6.0,38,0.00,,,0.00,meteohub,2013-07-27 21:33:00,
2013-07-27 17:38:00,77.7,45.5,30.03,West,265,0.0,6.0,38,0.00,,,0.00,meteohub,2013-07-27 21:38:00,
2013-07-27 17:43:00,77.9,45.7,30.03,West,270,2.0,6.0,38,0.00,,,0.00,meteohub,2013-07-27 21:43:00,
2013-07-27 17:48:00,78.1,45.9,30.03,WSW,256,4.0,6.0,38,0.00,,,0.00,meteohub,2013-07-27 21:48:00,
2013-07-27 17:53:00,78.6,46.2,30.03,WSW,240,0.0,6.0,38,0.00,,,0.00,meteohub,2013-07-27 21:53:00,
2013-07-27 17:58:00,79.0,45.7,30.03,WSW,257,0.0,5.0,37,0.00,,,0.00,meteohub,2013-07-27 21:58:00,
2013-07-27 18:03:00,79.0,45.7,30.03,WSW,237,0.0,5.0,37,0.00,,,0.00,meteohub,2013-07-27 22:03:00,
2013-07-27 18:08:00,78.8,45.7,30.03,WSW,237,0.0,5.0,37,0.00,,,0.00,meteohub,2013-07-27 22:08:00,
2013-07-27 18:13:00,78.4,46.2,30.00,WSW,252,0.0,5.0,38,0.00,,,0.00,meteohub,2013-07-27 22:13:00,
2013-07-27 18:18:00,78.1,45.9,30.00,WSW,252,0.0,5.0,38,0.00,,,0.00,meteohub,2013-07-27 22:18:00,
2013-07-27 18:23:00,77.9,45.7,30.00,WSW,251,0.0,5.0,38,0.00,,,0.00,meteohub,2013-07-27 22:23:00,
2013-07-27 18:28:00,77.7,45.5,30.03,SW,229,0.0,5.0,38,0.00,,,0.00,meteohub,2013-07-27 22:28:00,
2013-07-27 18:33:00,77.4,45.1,30.03,SW,229,0.0,5.0,38,0.00,,,0.00,meteohub,2013-07-27 22:33:00,
2013-07-27 18:38:00,77.2,45.9,30.03,SW,228,0.0,5.0,39,0.00,,,0.00,meteohub,2013-07-27 22:38:00,
2013-07-27 18:43:00,77.2,45.0,30.03,SW,234,0.0,5.0,38,0.00,,,0.00,meteohub,2013-07-27 22:43:00,
2013-07-27 18:48:00,77.4,45.1,30.03,SW,224,0.0,5.0,38,0.00,,,0.00,meteohub,2013-07-27 22:48:00,
2013-07-27 18:53:00,77.7,45.5,30.03,SW,236,0.0,5.0,38,0.00,,,0.00,meteohub,2013-07-27 22:53:00,
2013-07-27 18:58:00,78.1,45.9,30.03,West,259,0.0,5.0,38,0.00,,,0.00,meteohub,2013-07-27 22:58:00,
2013-07-27 19:03:00,77.9,44.8,30.03,West,260,0.0,0.0,37,0.00,,,0.00,meteohub,2013-07-27 23:03:00,
2013-07-27 19:08:00,77.5,44.6,30.03,WSW,246,0.0,0.0,37,0.00,,,0.00,meteohub,2013-07-27 23:08:00,
2013-07-27 19:13:00,77.4,44.4,30.03,WSW,246,0.0,0.0,37,0.00,,,0.00,meteohub,2013-07-27 23:13:00,
2013-07-27 19:18:00,77.0,45.0,30.03,WSW,251,0.0,0.0,38,0.00,,,0.00,meteohub,2013-07-27 23:18:00,
2013-07-27 19:23:00,76.8,44.8,30.03,WSW,255,0.0,0.0,38,0.00,,,0.00,meteohub,2013-07-27 23:23:00,
2013-07-27 19:28:00,76.6,44.6,30.03,SW,225,0.0,0.0,38,0.00,,,0.00,meteohub,2013-07-27 23:28:00,
2013-07-27 19:33:00,76.6,44.6,30.03,SSE,168,0.0,0.0,38,0.00,,,0.00,meteohub,2013-07-27 23:33:00,
2013-07-27 19:38:00,76.5,44.4,30.03,SSE,168,0.0,0.0,38,0.00,,,0.00,meteohub,2013-07-27 23:38:00,
2013-07-27 19:43:00,76.3,44.2,30.00,West,268,0.0,0.0,38,0.00,,,0.00,meteohub,2013-07-27 23:43:00,
2013-07-27 19:48:00,76.3,45.1,30.00,SW,214,0.0,0.0,39,0.00,,,0.00,meteohub,2013-07-27 23:48:00,
2013-07-27 19:53:00,76.1,45.0,30.00,SW,215,0.0,0.0,39,0.00,,,0.00,meteohub,2013-07-27 23:53:00,
2013-07-27 19:58:00,75.9,44.8,30.00,SW,228,0.0,0.0,39,0.00,,,0.00,meteohub,2013-07-27 23:58:00,
2013-07-27 20:03:00,75.7,44.6,30.00,SW,228,0.0,0.0,39,0.00,,,0.00,meteohub,2013-07-28 00:03:00,
2013-07-27 20:08:00,75.6,45.1,30.00,SW,228,0.0,0.0,40,0.00,,,0.00,meteohub,2013-07-28 00:08:00,
2013-07-27 20:13:00,75.2,45.0,30.03,SW,227,0.0,0.0,40,0.00,,,0.00,meteohub,2013-07-28 00:13:00,
2013-07-27 20:18:00,75.0,45.5,30.03,WSW,242,0.0,0.0,41,0.00,,,0.00,meteohub,2013-07-28 00:18:00,
2013-07-27 20:23:00,74.7,45.9,30.03,SSW,195,0.0,0.0,42,0.00,,,0.00,meteohub,2013-07-28 00:23:00,
2013-07-27 20:28:00,74.5,45.9,30.03,SSW,196,0.0,0.0,42,0.00,,,0.00,meteohub,2013-07-28 00:28:00,
2013-07-27 20:33:00,74.1,46.2,30.03,SSW,195,0.0,0.0,43,0.00,,,0.00,meteohub,2013-07-28 00:33:00,
2013-07-27 20:38:00,73.9,46.8,30.03,SSW,196,0.0,0.0,44,0.00,,,0.00,meteohub,2013-07-28 00:38:00,
2013-07-27 20:44:00,73.8,46.6,30.03,SSW,195,0.0,0.0,44,0.00,,,0.00,meteohub,2013-07-28 00:44:00,
2013-07-27 20:49:00,73.6,47.1,30.03,SSW,196,0.0,0.0,45,0.00,,,0.00,meteohub,2013-07-28 00:49:00,
2013-07-27 20:54:00,73.4,47.7,30.03,SW,233,0.0,0.0,46,0.00,,,0.00,meteohub,2013-07-28 00:54:00,
2013-07-27 20:59:00,73.2,48.0,30.03,SW,233,0.0,0.0,47,0.00,,,0.00,meteohub,2013-07-28 00:59:00,
2013-07-27 21:04:00,73.0,48.6,30.03,SW,233,0.0,0.0,48,0.00,,,0.00,meteohub,2013-07-28 01:04:00,
2013-07-27 21:09:00,72.9,48.4,30.03,SW,233,0.0,0.0,48,0.00,,,0.00,meteohub,2013-07-28 01:09:00,
2013-07-27 21:14:00,72.7,48.9,30.03,SW,233,0.0,4.0,49,0.00,,,0.00,meteohub,2013-07-28 01:14:00,
2013-07-27 21:19:00,72.5,48.7,30.03,SW,233,0.0,4.0,49,0.00,,,0.00,meteohub,2013-07-28 01:19:00,
2013-07-27 21:24:00,72.3,49.1,30.03,SW,233,0.0,4.0,50,0.00,,,0.00,meteohub,2013-07-28 01:24:00,
2013-07-27 21:29:00,72.1,49.6,30.03,SW,233,0.0,4.0,51,0.00,,,0.00,meteohub,2013-07-28 01:29:00,
2013-07-27 21:34:00,72.0,49.5,30.03,SW,233,0.0,4.0,51,0.00,,,0.00,meteohub,2013-07-28 01:34:00,
2013-07-27 21:39:00,71.8,49.8,30.03,SW,233,0.0,4.0,52,0.00,,,0.00,meteohub,2013-07-28 01:39:00,
2013-07-27 21:44:00,71.6,49.6,30.03,SW,233,0.0,4.0,52,0.00,,,0.00,meteohub,2013-07-28 01:44:00,
2013-07-27 21:49:00,71.4,50.2,30.03,SW,233,0.0,4.0,53,0.00,,,0.00,meteohub,2013-07-28 01:49:00,
2013-07-27 21:54:00,71.4,50.7,30.03,SW,233,0.0,4.0,54,0.00,,,0.00,meteohub,2013-07-28 01:54:00,
2013-07-27 21:59:00,71.2,51.1,30.06,SW,233,0.0,4.0,55,0.00,,,0.00,meteohub,2013-07-28 01:59:00,
2013-07-27 22:04:00,71.2,51.1,30.06,SW,233,0.0,4.0,55,0.00,,,0.00,meteohub,2013-07-28 02:04:00,
2013-07-27 22:09:00,71.1,51.4,30.06,SW,233,0.0,0.0,56,0.00,,,0.00,meteohub,2013-07-28 02:09:00,
2013-07-27 22:14:00,71.1,52.0,30.06,SW,233,0.0,0.0,57,0.00,,,0.00,meteohub,2013-07-28 02:14:00,
2013-07-27 22:19:00,70.9,52.3,30.06,SW,233,0.0,0.0,58,0.00,,,0.00,meteohub,2013-07-28 02:19:00,
2013-07-27 22:24:00,70.9,52.3,30.06,SW,233,0.0,0.0,58,0.00,,,0.00,meteohub,2013-07-28 02:24:00,
2013-07-27 22:29:00,70.9,52.9,30.06,SW,233,0.0,0.0,59,0.00,,,0.00,meteohub,2013-07-28 02:29:00,
2013-07-27 22:34:00,70.7,53.2,30.06,SW,233,0.0,0.0,60,0.00,,,0.00,meteohub,2013-07-28 02:34:00,
2013-07-27 22:39:00,70.7,53.2,30.06,SW,233,0.0,0.0,60,0.00,,,0.00,meteohub,2013-07-28 02:39:00,
2013-07-27 22:44:00,70.7,53.8,30.06,SW,233,0.0,0.0,61,0.00,,,0.00,meteohub,2013-07-28 02:44:00,
2013-07-27 22:49:00,70.7,54.3,30.06,SW,233,0.0,0.0,62,0.00,,,0.00,meteohub,2013-07-28 02:49:00,
2013-07-27 22:54:00,70.5,54.5,30.06,SW,233,0.0,0.0,63,0.00,,,0.00,meteohub,2013-07-28 02:54:00,
2013-07-27 22:59:00,70.5,54.5,30.06,SW,233,0.0,0.0,63,0.00,,,0.00,meteohub,2013-07-28 02:59:00,
2013-07-27 23:04:00,70.5,55.0,30.06,SW,233,0.0,0.0,64,0.00,,,0.00,meteohub,2013-07-28 03:04:00,
2013-07-27 23:09:00,70.3,54.9,30.06,SW,233,0.0,0.0,64,0.00,,,0.00,meteohub,2013-07-28 03:09:00,
2013-07-27 23:14:00,70.5,55.6,30.06,SW,233,0.0,0.0,65,0.00,,,0.00,meteohub,2013-07-28 03:14:00,
2013-07-27 23:19:00,70.5,55.9,30.06,South,189,0.0,0.0,66,0.00,,,0.00,meteohub,2013-07-28 03:19:00,
2013-07-27 23:24:00,70.5,55.9,30.06,South,189,0.0,0.0,66,0.00,,,0.00,meteohub,2013-07-28 03:24:00,
2013-07-27 23:29:00,70.5,56.5,30.06,South,189,0.0,0.0,67,0.00,,,0.00,meteohub,2013-07-28 03:29:00,
2013-07-27 23:34:00,70.3,56.3,30.06,South,189,0.0,0.0,67,0.00,,,0.00,meteohub,2013-07-28 03:34:00,
2013-07-27 23:39:00,70.3,56.3,30.06,South,189,0.0,0.0,67,0.00,,,0.00,meteohub,2013-07-28 03:39:00,
2013-07-27 23:44:00,70.3,56.7,30.06,South,189,0.0,0.0,68,0.00,,,0.00,meteohub,2013-07-28 03:44:00,
2013-07-27 23:49:00,70.2,56.5,30.06,South,189,0.0,0.0,68,0.00,,,0.00,meteohub,2013-07-28 03:49:00,
2013-07-27 23:54:00,70.2,56.5,30.06,South,189,0.0,0.0,68,0.00,,,0.00,meteohub,2013-07-28 03:54:00,
2013-07-27 23:59:00,70.0,56.8,30.06,South,189,0.0,0.0,69,0.00,,,0.00,meteohub,2013-07-28 03:59:00,